TimeEST,TemperatureF,Dew PointF,Humidity,Sea Level PressureIn,VisibilityMPH,Wind Direction,Wind SpeedMPH,Gust SpeedMPH,PrecipitationIn,Events,Conditions,WindDirDegrees,DateUTC
12:15 AM,6.8,3.2,85,30.26,10.0,North,8.1,-,N/A,,Scattered Clouds,360,2013-01-24 05:15:00
12:34 AM,5.0,1.4,85,30.28,10.0,North,8.1,-,N/A,,Scattered Clouds,350,2013-01-24 05:34:00
12:55 AM,5.0,1.4,85,30.30,7.0,North,5.8,-,N/A,,Overcast,350,2013-01-24 05:55:00
1:15 AM,3.2,-0.4,85,30.31,3.0,North,6.9,-,N/A,Snow,Light Snow,350,2013-01-24 06:15:00
1:34 AM,3.2,-0.4,85,30.32,5.0,North,4.6,-,N/A,,Overcast,360,2013-01-24 06:34:00
1:55 AM,3.2,-0.4,85,30.34,4.0,NNE,4.6,-,N/A,Snow,Light Snow,20,2013-01-24 06:55:00
2:15 AM,1.4,-2.2,85,30.35,10.0,NNE,5.8,-,N/A,,Overcast,30,2013-01-24 07:15:00
2:34 AM,1.4,-2.2,85,30.37,10.0,North,5.8,-,N/A,,Overcast,10,2013-01-24 07:34:00
2:55 AM,-0.4,-4.0,85,30.38,10.0,NNE,5.8,-,N/A,,Overcast,20,2013-01-24 07:55:00
3:14 AM,-0.4,-5.8,78,30.39,10.0,North,4.6,-,N/A,,Overcast,10,2013-01-24 08:14:00
3:34 AM,-2.2,-5.8,85,30.40,10.0,NNE,4.6,-,N/A,,Overcast,20,2013-01-24 08:34:00
3:55 AM,-2.2,-5.8,85,30.42,10.0,North,4.6,-,N/A,,Overcast,10,2013-01-24 08:55:00
4:14 AM,-2.2,-5.8,85,30.43,7.0,NNE,6.9,-,N/A,,Overcast,20,2013-01-24 09:14:00
4:34 AM,-2.2,-7.6,78,30.44,10.0,North,4.6,-,N/A,,Overcast,10,2013-01-24 09:34:00
4:55 AM,-4.0,-7.6,85,30.45,10.0,NNE,3.5,-,N/A,,Overcast,20,2013-01-24 09:55:00
5:14 AM,-4.0,-7.6,85,30.46,10.0,North,4.6,-,N/A,,Overcast,10,2013-01-24 10:14:00
5:35 AM,-4.0,-7.6,85,30.47,10.0,Calm,Calm,-,N/A,,Overcast,0,2013-01-24 10:35:00
5:55 AM,-5.8,-9.4,84,30.48,10.0,NNE,3.5,-,N/A,,Overcast,20,2013-01-24 10:55:00
6:14 AM,-5.8,-9.4,84,30.48,10.0,NNE,4.6,-,N/A,,Overcast,20,2013-01-24 11:14:00
6:35 AM,-5.8,-9.4,84,30.49,10.0,Calm,Calm,-,N/A,,Overcast,0,2013-01-24 11:35:00
6:55 AM,-5.8,-9.4,84,30.50,10.0,Calm,Calm,-,N/A,,Overcast,0,2013-01-24 11:55:00
7:14 AM,-11.2,-14.8,84,30.52,10.0,Calm,Calm,-,N/A,Snow,Light Snow,0,2013-01-24 12:14:00
7:35 AM,-11.2,-14.8,84,30.52,5.0,Calm,Calm,-,N/A,Snow,Light Snow,0,2013-01-24 12:35:00
7:55 AM,-14.8,-20.2,77,30.53,10.0,Calm,Calm,-,N/A,Snow,Light Snow,0,2013-01-24 12:55:00
8:14 AM,-16.6,-20.2,84,30.53,4.0,Calm,Calm,-,N/A,Snow,Light Snow,0,2013-01-24 13:14:00
8:35 AM,-16.6,-20.2,84,30.54,2.5,Calm,Calm,-,N/A,Snow,Light Snow,0,2013-01-24 13:35:00
8:54 AM,-14.8,-18.4,84,30.54,1.0,Calm,Calm,-,N/A,Snow,Light Snow,0,2013-01-24 13:54:00
9:14 AM,-14.8,-18.4,84,30.55,2.5,Calm,Calm,-,N/A,Snow,Light Snow,0,2013-01-24 14:14:00
9:35 AM,-11.2,-16.6,77,30.56,2.0,Calm,Calm,-,N/A,Snow,Light Snow,0,2013-01-24 14:35:00
9:54 AM,-9.4,-14.8,77,30.56,2.5,Calm,Calm,-,N/A,Snow,Light Snow,0,2013-01-24 14:54:00
10:15 AM,-2.2,-7.6,78,30.56,10.0,Calm,Calm,-,N/A,Snow,Light Snow,0,2013-01-24 15:15:00
10:34 AM,-0.4,-4.0,85,30.57,10.0,Calm,Calm,-,N/A,,Scattered Clouds,0,2013-01-24 15:34:00
10:54 AM,1.4,-2.2,85,30.57,10.0,Calm,Calm,-,N/A,,Scattered Clouds,0,2013-01-24 15:54:00
11:15 AM,1.4,-2.2,85,30.56,10.0,Calm,Calm,-,N/A,,Mostly Cloudy,0,2013-01-24 16:15:00
11:34 AM,3.2,-2.2,78,30.56,10.0,Calm,Calm,-,N/A,,Overcast,0,2013-01-24 16:34:00
11:55 AM,3.2,-2.2,78,30.56,4.0,Calm,Calm,-,N/A,Snow,Light Snow,0,2013-01-24 16:55:00
12:15 PM,3.2,-2.2,78,30.55,5.0,Calm,Calm,-,N/A,Snow,Light Snow,0,2013-01-24 17:15:00
12:34 PM,6.8,-0.4,72,30.55,10.0,Calm,Calm,-,N/A,,Unknown,0,2013-01-24 17:34:00
1:15 PM,8.6,-0.4,67,30.54,10.0,SW,3.5,-,N/A,,Scattered Clouds,220,2013-01-24 18:15:00
1:34 PM,8.6,1.4,73,30.53,10.0,Calm,Calm,-,N/A,,Unknown,0,2013-01-24 18:34:00
1:55 PM,8.6,1.4,73,30.53,10.0,Calm,Calm,-,N/A,,Unknown,0,2013-01-24 18:55:00
2:14 PM,8.6,1.4,73,30.52,10.0,WSW,4.6,-,N/A,,Unknown,250,2013-01-24 19:14:00
2:34 PM,8.6,1.4,73,30.52,10.0,SW,6.9,-,N/A,,Unknown,230,2013-01-24 19:34:00
2:55 PM,10.4,1.4,67,30.52,10.0,WSW,3.5,-,N/A,,Mostly Cloudy,250,2013-01-24 19:55:00
3:14 PM,10.4,1.4,67,30.51,10.0,West,5.8,-,N/A,,Mostly Cloudy,260,2013-01-24 20:14:00
3:34 PM,10.4,1.4,67,30.52,10.0,SW,4.6,-,N/A,,Scattered Clouds,230,2013-01-24 20:34:00
3:55 PM,10.4,1.4,67,30.52,10.0,West,5.8,-,N/A,,Scattered Clouds,270,2013-01-24 20:55:00
4:14 PM,10.4,3.2,73,30.52,10.0,WSW,4.6,-,N/A,,Mostly Cloudy,240,2013-01-24 21:14:00
4:35 PM,10.4,3.2,73,30.52,10.0,SSW,4.6,-,N/A,,Overcast,210,2013-01-24 21:35:00
4:55 PM,8.6,3.2,79,30.52,10.0,SW,6.9,-,N/A,,Scattered Clouds,230,2013-01-24 21:55:00
5:14 PM,6.8,1.4,79,30.50,10.0,SW,5.8,-,N/A,,Scattered Clouds,220,2013-01-24 22:14:00
5:35 PM,8.6,3.2,79,30.50,10.0,SW,5.8,-,N/A,,Mostly Cloudy,220,2013-01-24 22:35:00
5:55 PM,8.6,3.2,79,30.50,10.0,SW,5.8,-,N/A,,Overcast,230,2013-01-24 22:55:00
6:14 PM,8.6,5.0,85,30.50,7.0,SW,5.8,-,N/A,Snow,Light Snow,230,2013-01-24 23:14:00
6:35 PM,8.6,5.0,85,30.49,7.0,SW,5.8,-,N/A,Snow,Light Snow,220,2013-01-24 23:35:00
6:54 PM,6.8,3.2,85,30.48,10.0,SW,5.8,-,N/A,,Mostly Cloudy,220,2013-01-24 23:54:00
7:14 PM,6.8,3.2,85,30.48,10.0,SW,5.8,-,N/A,,Scattered Clouds,220,2013-01-25 00:14:00
7:35 PM,5.0,1.4,85,30.48,10.0,SW,5.8,-,N/A,,Clear,220,2013-01-25 00:35:00
7:54 PM,3.2,-0.4,85,30.47,10.0,SW,4.6,-,N/A,,Clear,220,2013-01-25 00:54:00
8:14 PM,3.2,1.4,92,30.46,10.0,SW,6.9,-,N/A,,Clear,220,2013-01-25 01:14:00
8:35 PM,5.0,1.4,85,30.46,10.0,SW,4.6,-,N/A,,Clear,220,2013-01-25 01:35:00
8:54 PM,3.2,1.4,92,30.44,10.0,Calm,Calm,-,N/A,,Clear,0,2013-01-25 01:54:00
9:15 PM,5.0,1.4,85,30.43,10.0,Calm,Calm,-,N/A,,Clear,0,2013-01-25 02:15:00
9:35 PM,5.0,1.4,85,30.43,10.0,Calm,Calm,-,N/A,,Clear,0,2013-01-25 02:35:00
9:54 PM,3.2,1.4,92,30.42,10.0,Calm,Calm,-,N/A,,Clear,0,2013-01-25 02:54:00
10:15 PM,3.2,1.4,92,30.42,10.0,SSW,3.5,-,N/A,,Clear,210,2013-01-25 03:15:00
10:35 PM,5.0,1.4,85,30.42,10.0,Calm,Calm,-,N/A,,Clear,0,2013-01-25 03:35:00
10:54 PM,3.2,1.4,92,30.41,10.0,Calm,Calm,-,N/A,,Scattered Clouds,0,2013-01-25 03:54:00
11:15 PM,3.2,1.4,92,30.39,10.0,Calm,Calm,-,N/A,,Clear,0,2013-01-25 04:15:00
11:34 PM,5.0,1.4,85,30.39,10.0,Calm,Calm,-,N/A,,Scattered Clouds,0,2013-01-25 04:34:00
11:54 PM,3.2,1.4,92,30.39,10.0,Calm,Calm,-,N/A,,Scattered Clouds,0,2013-01-25 04:54:00